Погода в Мандритсаре

Мадагаскар     15°50′53″S   48°49′46″E
темп.,
°C
ветер,
м/с
пор.,
м/с
влажн.,
%
обл.,
%
осадки,
мм/ч
давл.,
гПа
погр.,
м
1 марта, пн
пн100:00+22вюв12969 0.4 101025
03:00+21в12974 0.4 100931
06:00+20вюв229817 0.0 101056
09:00+26в247719 0.0 1012825
12:00+28в246979 0.1 1010836
15:00+28вюв347341 2.3 1008893
18:00+24вюв37877 4.4 1009168
21:00+21вюв229311 5.8 101367
2 марта, вт
вт200:00+20в12965 0.0 101237
03:00+19вюв12973 0.0 101127
06:00+19вюв129812 0.0 101134
09:00+25вюв36797 0.0 1012782
12:00+30юв145328 0.0 10101695
15:00+31вюв235047 0.0 10081954
18:00+25в237873 0.3 101095
21:00+22юв119366 1.5 101323
3 марта, ср
ср300:00+21вюв129682 0.6 101226
03:00+20юв129850 0.7 101138
06:00+20в129733 0.0 101131
09:00+25в137729 0.0 1012782
12:00+29вюв236365 0.0 10091144
15:00+31ю125639 0.0 10081472
18:00+24в118846 1.8 100934
21:00+23зюз119068 4.9 101123
4 марта, чт
чт400:00+22всв0093100 1.7 101023
03:00+22юв1195100 2.4 100929
06:00+22вюв1195100 0.1 100935
09:00+26юз0180100 0.8 1011454
12:00+27зсз4671100 1.2 10091031
15:00+27зсз4669100 2.0 10071157
18:00+23зсз129477 2.8 100951
21:00+21зсз119687 3.1 101023
5 марта, пт
пт500:00+21ссв0097100 0.0 101023
03:00+21всв1195100 0.0 100825
06:00+21юв1194100 0.0 101024
09:00+25зюз1281100 0.0 1010507
12:00+23з1287100 0.1 1009245
15:00+26зсз368377 2.5 1006909
18:00+22зсз31296100 8.3 1008792
21:00+22зсз1299100 20.9 1009107